Location: Baumgarten
(49.0970°N, 12.7493°E)
Time: 02:56:25
(UTC+00:00)

GP-B - Pass Details

Date: 05 July 2020
Orbit: 631 x 635 km, 89.8° (Epoch: 04 August)

Event Time Altitude Azimuth Distance (km) Brightness Sun altitude
Rises 22:03:03 0° 7° (N) 2,942 7.8 -16.5°
Reaches altitude 10° 22:05:24 10° 14° (NNE) 2,028 6.6 -16.6°
Maximum altitude 22:09:37 42° 86° (E) 914 3.8 -16.8°
Enters shadow 22:11:23 28° 135° (SE) 1,183 4.0 -16.9°
